This is the latest recevied weather packets stored in our database for station/object OH6GKW. If no packets are shown the sender has not sent any weather packets the latest 10 day(s).
| Time | Temp. | Humidity | Pressure | Rain* | Wind** | Luminosity | Snow |
|---|---|---|---|---|---|---|---|
| 1777727313 | 13.89° C | 53% | 1002.9 hPa | 0 mm | - | 252 W/m² | - |
| 1777727041 | 13.89° C | 54% | 1002.9 hPa | 0 mm | - | 246 W/m² | - |
| 1777726730 | 13.89° C | 54% | 1002.9 hPa | 0 mm | - | 232 W/m² | - |
| 1777726418 | 13.89° C | 53% | 1002.9 hPa | 0 mm | - | 245 W/m² | - |
| 1777726109 | 13.89° C | 52% | 1002.9 hPa | 0 mm | - | 350 W/m² | - |
| 1777725822 | 13.89° C | 52% | 1002.9 hPa | 0 mm | - | 389 W/m² | - |
| 1777725513 | 13.89° C | 51% | 1002.9 hPa | 0 mm | - | 318 W/m² | - |
| 1777725240 | 13.89° C | 50% | 1002.9 hPa | 0 mm | - | 289 W/m² | - |
| 1777724917 | 13.89° C | 50% | 1003.1 hPa | 0 mm | - | 292 W/m² | - |
| 1777724612 | 13.89° C | 49% | 1003.1 hPa | 0 mm | - | 278 W/m² | - |
| 1777724339 | 13.89° C | 49% | 1003.1 hPa | 0 mm | - | 271 W/m² | - |
| 1777724033 | 13.89° C | 50% | 1003.1 hPa | 0 mm | - | 289 W/m² | - |
| 1777723722 | 13.89° C | 53% | 1003.1 hPa | 0 mm | - | 278 W/m² | - |
| 1777723416 | 14.44° C | 52% | 1003.1 hPa | 0 mm | - | 276 W/m² | - |
| 1777723128 | 14.44° C | 52% | 1003.1 hPa | 0 mm | - | 264 W/m² | - |
| 1777722823 | 13.89° C | 53% | 1003.1 hPa | 0 mm | - | 252 W/m² | - |
| 1777722519 | 13.89° C | 52% | 1003.1 hPa | 0 mm | - | 238 W/m² | - |
| 1777722221 | 14.44° C | 51% | 1003 hPa | 0 mm | - | 238 W/m² | - |
| 1777721915 | 14.44° C | 50% | 1003 hPa | 0 mm | - | 255 W/m² | - |
| 1777721641 | 14.44° C | 48% | 1003 hPa | 0 mm | - | 239 W/m² | - |
| 1777721322 | 14.44° C | 48% | 1002.9 hPa | 0 mm | - | 236 W/m² | - |
| 1777721026 | 15° C | 47% | 1002.9 hPa | 0 mm | - | 282 W/m² | - |
| 1777720720 | 15° C | 46% | 1002.9 hPa | 0 mm | - | 274 W/m² | - |
| 1777720411 | 15° C | 50% | 1002.9 hPa | 0 mm | - | 306 W/m² | - |
| 1777720117 | 15° C | 48% | 1002.9 hPa | 0 mm | - | 362 W/m² | - |
* Rain since midnight (hover to see other rain measurements)
** Current wind speed in m/s (hover to see current wind gust speed)